Location: �chenoz-la-M�line
(47.6009°N, 6.1354°E)
Time: 16:46:32
(UTC+00:00)

SMAP - Pass Details

Date: 27 January 2021
Orbit: 682 x 683 km, 98.1° (Epoch: 03 March)

Event Time Altitude Azimuth Distance (km) Brightness Sun altitude
Rises 06:29:40 0° 9° (N) 3,057 6.3 -6.8°
Reaches altitude 10° 06:31:58 10° 5° (N) 2,137 5.5 -6.4°
Maximum altitude 06:36:29 52° 290° (WNW) 854 3.2 -5.7°
Drops below altitude 10° 06:40:59 10° 214° (SW) 2,121 5.5 -5.0°
Sets 06:43:15 0° 210° (SSW) 3,031 6.3 -4.6°
